User: anonymous   Login
Location: Newark
(37.3333°N, 6.0167°W)
Time: 18:05:38
(UTC+00:00)
Language:

PRISM - Orbit

View from above orbital plane
View from above orbital plane
View from above satellite
View from above satellite

Ground track
Ground track

The orbit data is extracted from the following two-line orbital elements,

1 33493U 09002B   19348.62820050  .00000977  00000-0  90688-4 0  9999
2 33493  98.1304 276.4183 0013979 315.7667  44.2435 14.96841901591914
Epoch (UTC): 14 December 2019 15:04:36
Eccentricity: 0.0013979
inclination: 98.1304°
perigee height: 567 km
apogee height: 586 km
right ascension of ascending node: 276.4183°
argument of perigee: 315.7667°
revolutions per day: 14.96841901
mean anomaly at epoch: 44.2435°
orbit number at epoch: 59191

The dashed part of the orbit path shows where the satellite is in the earth's shadow,  

DLR